Time,TemperatureF,DewpointF,PressureIn,WindDirection,WindDirectionDegrees,WindSpeedMPH,WindSpeedGustMPH,Humidity,HourlyPrecipIn,Conditions,Clouds,dailyrainin,SoftwareType,DateUTC
2013-01-07 00:02:00,16.0,-3.0,-100.00,WNW,291,10.0,16.0,41,-99.99,,,-99.99,,2013-01-07 07:02:00,
2013-01-07 00:12:00,16.0,-3.0,-100.00,WNW,291,10.0,16.0,41,-99.99,,,-99.99,,2013-01-07 07:12:00,
2013-01-07 00:22:00,16.0,-3.0,-100.00,WNW,295,11.0,17.0,41,-99.99,,,-99.99,,2013-01-07 07:22:00,
2013-01-07 00:32:00,16.0,-3.0,-100.00,WNW,295,11.0,17.0,41,-99.99,,,-99.99,,2013-01-07 07:32:00,
2013-01-07 00:42:00,16.0,-3.0,-100.00,WNW,295,11.0,17.0,41,-99.99,,,-99.99,,2013-01-07 07:42:00,
2013-01-07 00:52:00,16.0,-2.0,-100.00,WNW,290,9.0,15.0,43,-99.99,,,-99.99,,2013-01-07 07:52:00,
2013-01-07 01:02:00,16.0,-2.0,-100.00,WNW,293,8.0,17.0,44,-99.99,,,-99.99,,2013-01-07 08:02:00,
2013-01-07 01:12:00,16.0,-2.0,-100.00,WNW,293,8.0,17.0,44,-99.99,,,-99.99,,2013-01-07 08:12:00,
2013-01-07 01:22:00,15.0,-2.0,-100.00,West,279,10.0,20.0,46,-99.99,,,-99.99,,2013-01-07 08:22:00,
2013-01-07 01:32:00,15.0,-2.0,-100.00,WNW,284,10.0,17.0,46,-99.99,,,-99.99,,2013-01-07 08:32:00,
2013-01-07 01:42:00,15.0,-2.0,-100.00,WNW,284,10.0,17.0,46,-99.99,,,-99.99,,2013-01-07 08:42:00,
2013-01-07 01:53:00,15.0,-2.0,-100.00,WNW,287,9.0,19.0,46,-99.99,,,-99.99,,2013-01-07 08:53:00,
2013-01-07 02:02:00,15.0,-2.0,-100.00,WNW,283,8.0,12.0,46,-99.99,,,-99.99,,2013-01-07 09:02:00,
2013-01-07 02:12:00,15.0,-2.0,-100.00,WNW,283,8.0,12.0,46,-99.99,,,-99.99,,2013-01-07 09:12:00,
2013-01-07 02:22:00,15.0,-2.0,-100.00,West,263,7.0,15.0,47,-99.99,,,-99.99,,2013-01-07 09:22:00,
2013-01-07 02:32:00,15.0,-2.0,-100.00,West,271,5.0,12.0,47,-99.99,,,-99.99,,2013-01-07 09:32:00,
2013-01-07 02:42:00,15.0,-2.0,-100.00,West,271,5.0,12.0,47,-99.99,,,-99.99,,2013-01-07 09:42:00,
2013-01-07 02:52:00,16.0,0.0,-100.00,West,268,8.0,14.0,48,-99.99,,,-99.99,,2013-01-07 09:52:00,
2013-01-07 03:02:00,16.0,0.0,-100.00,WSW,256,7.0,13.0,49,-99.99,,,-99.99,,2013-01-07 10:02:00,
2013-01-07 03:12:00,16.0,0.0,-100.00,WSW,256,7.0,13.0,49,-99.99,,,-99.99,,2013-01-07 10:12:00,
2013-01-07 03:22:00,16.0,1.0,-100.00,West,260,7.0,11.0,51,-99.99,,,-99.99,,2013-01-07 10:22:00,
2013-01-07 03:32:00,16.0,2.0,-100.00,West,263,8.0,14.0,52,-99.99,,,-99.99,,2013-01-07 10:32:00,
2013-01-07 03:42:00,16.0,2.0,-100.00,West,263,8.0,14.0,52,-99.99,,,-99.99,,2013-01-07 10:42:00,
2013-01-07 03:52:00,16.0,3.0,-100.00,West,276,9.0,15.0,55,-99.99,,,-99.99,,2013-01-07 10:52:00,
2013-01-07 04:02:00,16.0,3.0,-100.00,WNW,288,12.0,20.0,55,-99.99,,,-99.99,,2013-01-07 11:02:00,
2013-01-07 04:12:00,16.0,3.0,-100.00,WNW,288,12.0,20.0,55,-99.99,,,-99.99,,2013-01-07 11:12:00,
2013-01-07 04:22:00,16.0,3.0,-100.00,WNW,295,14.0,23.0,56,-99.99,,,-99.99,,2013-01-07 11:22:00,
2013-01-07 04:32:00,16.0,2.0,-100.00,NW,311,15.0,30.0,54,-99.99,,,-99.99,,2013-01-07 11:32:00,
2013-01-07 04:43:00,16.0,2.0,-100.00,NW,311,15.0,30.0,54,-99.99,,,-99.99,,2013-01-07 11:43:00,
2013-01-07 04:53:00,16.0,2.0,-100.00,NW,309,15.0,22.0,53,-99.99,,,-99.99,,2013-01-07 11:53:00,
2013-01-07 05:02:00,15.0,1.0,-100.00,NW,306,13.0,18.0,53,-99.99,,,-99.99,,2013-01-07 12:02:00,
2013-01-07 05:12:00,15.0,1.0,-100.00,NW,306,13.0,18.0,53,-99.99,,,-99.99,,2013-01-07 12:12:00,
2013-01-07 05:22:00,15.0,4.0,-100.00,NW,307,10.0,17.0,60,-99.99,,,-99.99,,2013-01-07 12:22:00,
2013-01-07 05:32:00,15.0,5.0,-100.00,NW,308,10.0,18.0,64,-99.99,,,-99.99,,2013-01-07 12:32:00,
2013-01-07 05:43:00,15.0,5.0,-100.00,NW,308,10.0,18.0,64,-99.99,,,-99.99,,2013-01-07 12:43:00,
2013-01-07 05:53:00,15.0,5.0,-100.00,NW,306,12.0,17.0,65,-99.99,,,-99.99,,2013-01-07 12:53:00,
2013-01-07 06:02:00,15.0,7.0,-100.00,WNW,297,9.0,15.0,69,-99.99,,,-99.99,,2013-01-07 13:02:00,
2013-01-07 06:12:00,15.0,7.0,-100.00,WNW,297,9.0,15.0,69,-99.99,,,-99.99,,2013-01-07 13:12:00,
2013-01-07 06:22:00,16.0,9.0,-100.00,WNW,294,8.0,13.0,72,-99.99,,,-99.99,,2013-01-07 13:22:00,
2013-01-07 06:32:00,16.0,9.0,-100.00,WNW,290,7.0,13.0,74,-99.99,,,-99.99,,2013-01-07 13:32:00,
2013-01-07 06:42:00,16.0,9.0,-100.00,WNW,290,7.0,13.0,74,-99.99,,,-99.99,,2013-01-07 13:42:00,
2013-01-07 06:53:00,16.0,10.0,-100.00,WNW,284,7.0,13.0,76,-99.99,,,-99.99,,2013-01-07 13:53:00,
2013-01-07 07:03:00,16.0,10.0,-100.00,West,277,8.0,17.0,76,-99.99,,,-99.99,,2013-01-07 14:03:00,
2013-01-07 07:12:00,16.0,10.0,-100.00,West,277,8.0,17.0,76,-99.99,,,-99.99,,2013-01-07 14:12:00,
2013-01-07 07:22:00,16.0,9.0,-100.00,WNW,284,6.0,10.0,74,-99.99,,,-99.99,,2013-01-07 14:22:00,
2013-01-07 07:33:00,15.0,8.0,-100.00,WNW,285,5.0,10.0,74,-99.99,,,-99.99,,2013-01-07 14:33:00,
2013-01-07 07:42:00,15.0,8.0,-100.00,WNW,285,5.0,10.0,74,-99.99,,,-99.99,,2013-01-07 14:42:00,
2013-01-07 07:53:00,15.0,9.0,-100.00,WNW,286,5.0,10.0,75,-99.99,,,-99.99,,2013-01-07 14:53:00,
2013-01-07 08:02:00,15.0,9.0,-100.00,WNW,282,6.0,11.0,78,-99.99,,,-99.99,,2013-01-07 15:02:00,
2013-01-07 08:12:00,15.0,9.0,-100.00,WNW,282,6.0,11.0,78,-99.99,,,-99.99,,2013-01-07 15:12:00,
2013-01-07 08:22:00,14.0,9.0,-100.00,West,273,6.0,12.0,80,-99.99,,,-99.99,,2013-01-07 15:22:00,
2013-01-07 08:33:00,14.0,9.0,-100.00,WSW,254,5.0,10.0,81,-99.99,,,-99.99,,2013-01-07 15:33:00,
2013-01-07 08:42:00,14.0,9.0,-100.00,WSW,254,5.0,10.0,81,-99.99,,,-99.99,,2013-01-07 15:42:00,
2013-01-07 08:53:00,14.0,10.0,-100.00,West,273,9.0,15.0,82,-99.99,,,-99.99,,2013-01-07 15:53:00,
2013-01-07 09:02:00,15.0,9.0,-100.00,West,280,9.0,18.0,78,-99.99,,,-99.99,,2013-01-07 16:02:00,
2013-01-07 09:12:00,17.0,9.0,-100.00,West,277,9.0,16.0,71,-99.99,,,-99.99,,2013-01-07 16:12:00,
2013-01-07 09:22:00,17.0,9.0,-100.00,West,277,9.0,16.0,71,-99.99,,,-99.99,,2013-01-07 16:22:00,
2013-01-07 09:33:00,17.0,9.0,-100.00,West,277,9.0,16.0,71,-99.99,,,-99.99,,2013-01-07 16:33:00,
2013-01-07 09:42:00,17.0,9.0,-100.00,West,277,9.0,16.0,71,-99.99,,,-99.99,,2013-01-07 16:42:00,
2013-01-07 09:53:00,17.0,10.0,-100.00,WNW,295,8.0,18.0,74,-99.99,,,-99.99,,2013-01-07 16:53:00,
2013-01-07 10:02:00,17.0,11.0,-100.00,WNW,294,8.0,16.0,76,-99.99,,,-99.99,,2013-01-07 17:02:00,
2013-01-07 10:12:00,17.0,11.0,-100.00,WNW,294,8.0,16.0,76,-99.99,,,-99.99,,2013-01-07 17:12:00,
2013-01-07 10:22:00,17.0,10.0,-100.00,WNW,289,8.0,15.0,75,-99.99,,,-99.99,,2013-01-07 17:22:00,
2013-01-07 10:32:00,17.0,10.0,-100.00,West,279,7.0,15.0,72,-99.99,,,-99.99,,2013-01-07 17:32:00,
2013-01-07 10:42:00,17.0,10.0,-100.00,West,279,7.0,15.0,72,-99.99,,,-99.99,,2013-01-07 17:42:00,
2013-01-07 10:53:00,17.0,8.0,-100.00,West,278,11.0,20.0,67,-99.99,,,-99.99,,2013-01-07 17:53:00,
2013-01-07 11:02:00,18.0,8.0,-100.00,West,280,8.0,17.0,63,-99.99,,,-99.99,,2013-01-07 18:02:00,
2013-01-07 11:12:00,18.0,8.0,-100.00,West,280,8.0,17.0,63,-99.99,,,-99.99,,2013-01-07 18:12:00,
2013-01-07 11:23:00,19.0,7.0,-100.00,WNW,283,8.0,15.0,58,-99.99,,,-99.99,,2013-01-07 18:23:00,
2013-01-07 11:32:00,20.0,5.0,-100.00,West,268,5.0,13.0,52,-99.99,,,-99.99,,2013-01-07 18:32:00,
2013-01-07 11:42:00,20.0,6.0,-100.00,WNW,295,5.0,13.0,55,-99.99,,,-99.99,,2013-01-07 18:42:00,
2013-01-07 11:53:00,20.0,6.0,-100.00,WNW,295,5.0,13.0,55,-99.99,,,-99.99,,2013-01-07 18:53:00,
2013-01-07 12:03:00,19.0,7.0,-100.00,WNW,296,8.0,19.0,60,-99.99,,,-99.99,,2013-01-07 19:03:00,
2013-01-07 12:12:00,19.0,7.0,-100.00,WNW,296,8.0,19.0,60,-99.99,,,-99.99,,2013-01-07 19:12:00,
2013-01-07 12:22:00,18.0,8.0,-100.00,WNW,299,10.0,19.0,64,-99.99,,,-99.99,,2013-01-07 19:22:00,
2013-01-07 12:33:00,19.0,10.0,-100.00,WNW,296,10.0,21.0,68,-99.99,,,-99.99,,2013-01-07 19:33:00,
2013-01-07 12:42:00,19.0,10.0,-100.00,WNW,296,10.0,21.0,68,-99.99,,,-99.99,,2013-01-07 19:42:00,
2013-01-07 12:53:00,17.0,10.0,-100.00,WNW,300,10.0,22.0,74,-99.99,,,-99.99,,2013-01-07 19:53:00,
2013-01-07 13:02:00,17.0,10.0,-100.00,WNW,302,12.0,19.0,75,-99.99,,,-99.99,,2013-01-07 20:02:00,
2013-01-07 13:12:00,17.0,10.0,-100.00,WNW,302,12.0,19.0,75,-99.99,,,-99.99,,2013-01-07 20:12:00,
2013-01-07 13:22:00,16.0,9.0,-100.00,WNW,297,11.0,25.0,75,-99.99,,,-99.99,,2013-01-07 20:22:00,
2013-01-07 13:32:00,16.0,9.0,-100.00,WNW,297,11.0,25.0,75,-99.99,,,-99.99,,2013-01-07 20:32:00,
2013-01-07 13:42:00,16.0,9.0,-100.00,WNW,297,11.0,25.0,75,-99.99,,,-99.99,,2013-01-07 20:42:00,
2013-01-07 13:53:00,17.0,12.0,-100.00,West,264,6.0,18.0,79,-99.99,,,-99.99,,2013-01-07 20:53:00,
2013-01-07 14:02:00,17.0,12.0,-100.00,WNW,285,7.0,15.0,79,-99.99,,,-99.99,,2013-01-07 21:02:00,
2013-01-07 14:12:00,17.0,12.0,-100.00,WNW,285,7.0,15.0,79,-99.99,,,-99.99,,2013-01-07 21:12:00,
2013-01-07 14:22:00,17.0,11.0,-100.00,WNW,289,8.0,18.0,78,-99.99,,,-99.99,,2013-01-07 21:22:00,
2013-01-07 14:32:00,16.0,10.0,-100.00,WNW,284,7.0,17.0,78,-99.99,,,-99.99,,2013-01-07 21:32:00,
2013-01-07 14:42:00,16.0,10.0,-100.00,WNW,284,7.0,17.0,78,-99.99,,,-99.99,,2013-01-07 21:42:00,
2013-01-07 14:53:00,16.0,11.0,-100.00,WNW,282,7.0,23.0,79,-99.99,,,-99.99,,2013-01-07 21:53:00,
2013-01-07 15:02:00,16.0,11.0,-100.00,WNW,282,7.0,16.0,82,-99.99,,,-99.99,,2013-01-07 22:02:00,
2013-01-07 15:12:00,16.0,11.0,-100.00,WNW,282,7.0,16.0,82,-99.99,,,-99.99,,2013-01-07 22:12:00,
2013-01-07 15:22:00,16.0,11.0,-100.00,WNW,292,8.0,25.0,82,-99.99,,,-99.99,,2013-01-07 22:22:00,
2013-01-07 15:33:00,16.0,11.0,-100.00,WNW,292,8.0,25.0,82,-99.99,,,-99.99,,2013-01-07 22:33:00,
2013-01-07 15:42:00,16.0,11.0,-100.00,WNW,292,8.0,25.0,82,-99.99,,,-99.99,,2013-01-07 22:42:00,
2013-01-07 15:53:00,16.0,12.0,-100.00,West,280,10.0,23.0,84,-99.99,,,-99.99,,2013-01-07 22:53:00,
2013-01-07 16:02:00,15.0,11.0,-100.00,WNW,285,9.0,26.0,85,-99.99,,,-99.99,,2013-01-07 23:02:00,
2013-01-07 16:12:00,15.0,11.0,-100.00,WNW,285,9.0,26.0,85,-99.99,,,-99.99,,2013-01-07 23:12:00,
2013-01-07 16:22:00,15.0,11.0,-100.00,West,276,13.0,31.0,84,-99.99,,,-99.99,,2013-01-07 23:22:00,
2013-01-07 16:32:00,15.0,11.0,-100.00,West,275,12.0,25.0,84,-99.99,,,-99.99,,2013-01-07 23:32:00,
2013-01-07 16:42:00,15.0,11.0,-100.00,West,275,12.0,25.0,84,-99.99,,,-99.99,,2013-01-07 23:42:00,
2013-01-07 16:53:00,15.0,11.0,-100.00,West,281,11.0,24.0,85,-99.99,,,-99.99,,2013-01-07 23:53:00,
2013-01-07 17:02:00,15.0,12.0,-100.00,WNW,286,12.0,27.0,86,-99.99,,,-99.99,,2013-01-08 00:02:00,
2013-01-07 17:12:00,15.0,12.0,-100.00,WNW,286,12.0,27.0,86,-99.99,,,-99.99,,2013-01-08 00:12:00,
2013-01-07 17:22:00,15.0,12.0,-100.00,WNW,286,11.0,27.0,87,-99.99,,,-99.99,,2013-01-08 00:22:00,
2013-01-07 17:32:00,15.0,12.0,-100.00,WNW,290,12.0,33.0,87,-99.99,,,-99.99,,2013-01-08 00:32:00,
2013-01-07 17:42:00,15.0,12.0,-100.00,WNW,290,12.0,33.0,87,-99.99,,,-99.99,,2013-01-08 00:42:00,
2013-01-07 17:52:00,14.0,11.0,-100.00,WNW,300,12.0,27.0,87,-99.99,,,-99.99,,2013-01-08 00:52:00,
2013-01-07 18:02:00,14.0,11.0,-100.00,WNW,296,12.0,28.0,88,-99.99,,,-99.99,,2013-01-08 01:02:00,
2013-01-07 18:12:00,14.0,11.0,-100.00,WNW,296,12.0,28.0,88,-99.99,,,-99.99,,2013-01-08 01:12:00,
2013-01-07 18:22:00,14.0,11.0,-100.00,WNW,298,13.0,34.0,87,-99.99,,,-99.99,,2013-01-08 01:22:00,
2013-01-07 18:32:00,13.0,10.0,-100.00,WNW,298,13.0,30.0,88,-99.99,,,-99.99,,2013-01-08 01:32:00,
2013-01-07 18:42:00,13.0,10.0,-100.00,WNW,298,13.0,30.0,88,-99.99,,,-99.99,,2013-01-08 01:42:00,
2013-01-07 18:52:00,13.0,10.0,-100.00,WNW,299,14.0,27.0,88,-99.99,,,-99.99,,2013-01-08 01:52:00,
2013-01-07 19:02:00,13.0,10.0,-100.00,WNW,296,9.0,23.0,88,-99.99,,,-99.99,,2013-01-08 02:02:00,
2013-01-07 19:12:00,13.0,10.0,-100.00,WNW,296,9.0,23.0,88,-99.99,,,-99.99,,2013-01-08 02:12:00,
2013-01-07 19:22:00,13.0,10.0,-100.00,WNW,291,9.0,23.0,88,-99.99,,,-99.99,,2013-01-08 02:22:00,
2013-01-07 19:32:00,13.0,10.0,-100.00,WNW,300,12.0,25.0,88,-99.99,,,-99.99,,2013-01-08 02:32:00,
2013-01-07 19:42:00,13.0,10.0,-100.00,WNW,300,12.0,25.0,88,-99.99,,,-99.99,,2013-01-08 02:42:00,
2013-01-07 19:53:00,13.0,10.0,-100.00,WNW,296,12.0,31.0,88,-99.99,,,-99.99,,2013-01-08 02:53:00,
2013-01-07 20:03:00,13.0,10.0,-100.00,NW,304,11.0,26.0,88,-99.99,,,-99.99,,2013-01-08 03:03:00,
2013-01-07 20:12:00,13.0,10.0,-100.00,NW,304,11.0,26.0,88,-99.99,,,-99.99,,2013-01-08 03:12:00,
2013-01-07 20:22:00,13.0,10.0,-100.00,WNW,301,11.0,22.0,88,-99.99,,,-99.99,,2013-01-08 03:22:00,
2013-01-07 20:32:00,13.0,10.0,-100.00,WNW,303,12.0,31.0,88,-99.99,,,-99.99,,2013-01-08 03:32:00,
2013-01-07 20:42:00,13.0,10.0,-100.00,WNW,303,12.0,31.0,88,-99.99,,,-99.99,,2013-01-08 03:42:00,
2013-01-07 20:53:00,12.0,9.0,-100.00,NW,305,11.0,26.0,88,-99.99,,,-99.99,,2013-01-08 03:53:00,
2013-01-07 21:02:00,12.0,9.0,-100.00,WNW,302,11.0,27.0,88,-99.99,,,-99.99,,2013-01-08 04:02:00,
2013-01-07 21:12:00,12.0,9.0,-100.00,WNW,302,11.0,27.0,88,-99.99,,,-99.99,,2013-01-08 04:12:00,
2013-01-07 21:22:00,12.0,9.0,-100.00,WNW,294,10.0,24.0,88,-99.99,,,-99.99,,2013-01-08 04:22:00,
2013-01-07 21:32:00,12.0,9.0,-100.00,WNW,300,9.0,21.0,88,-99.99,,,-99.99,,2013-01-08 04:32:00,
2013-01-07 21:42:00,12.0,9.0,-100.00,WNW,300,9.0,21.0,88,-99.99,,,-99.99,,2013-01-08 04:42:00,
2013-01-07 21:52:00,12.0,9.0,-100.00,WNW,292,9.0,21.0,88,-99.99,,,-99.99,,2013-01-08 04:52:00,
2013-01-07 22:03:00,12.0,9.0,-100.00,West,272,6.0,15.0,88,-99.99,,,-99.99,,2013-01-08 05:03:00,
2013-01-07 22:12:00,12.0,9.0,-100.00,West,272,6.0,15.0,88,-99.99,,,-99.99,,2013-01-08 05:12:00,
2013-01-07 22:22:00,12.0,9.0,-100.00,West,278,6.0,16.0,88,-99.99,,,-99.99,,2013-01-08 05:22:00,
2013-01-07 22:33:00,12.0,9.0,-100.00,WNW,285,7.0,21.0,88,-99.99,,,-99.99,,2013-01-08 05:33:00,
2013-01-07 22:42:00,12.0,9.0,-100.00,WNW,285,7.0,21.0,88,-99.99,,,-99.99,,2013-01-08 05:42:00,
2013-01-07 22:53:00,12.0,9.0,-100.00,WNW,290,7.0,22.0,88,-99.99,,,-99.99,,2013-01-08 05:53:00,
2013-01-07 23:02:00,12.0,9.0,-100.00,WNW,289,8.0,25.0,88,-99.99,,,-99.99,,2013-01-08 06:02:00,
2013-01-07 23:12:00,12.0,9.0,-100.00,WNW,289,8.0,25.0,88,-99.99,,,-99.99,,2013-01-08 06:12:00,
2013-01-07 23:22:00,13.0,10.0,-100.00,WNW,290,10.0,24.0,88,-99.99,,,-99.99,,2013-01-08 06:22:00,
2013-01-07 23:32:00,13.0,10.0,-100.00,WNW,300,11.0,23.0,88,-99.99,,,-99.99,,2013-01-08 06:32:00,
2013-01-07 23:42:00,13.0,10.0,-100.00,WNW,300,11.0,23.0,88,-99.99,,,-99.99,,2013-01-08 06:42:00,
2013-01-07 23:52:00,13.0,10.0,-100.00,WNW,287,9.0,21.0,88,-99.99,,,-99.99,,2013-01-08 06:52:00,